Regional Weather Roundup
Issued by NWS Goodland, KS

Home | Current Version | Previous Version | Graphics & Text | Print | Product List | Glossary On
Versions: 1 2 3 4 5 6 7 8 9 10 11 12 13 14 15 16 17 18 19 20 21 22 23 24 25 26 27 28 29 30 31 32 33 34 35 36 37 38 39 40 41 42 43 44 45 46 47 48 49 50
000
ASUS43 KGLD 301408
RWRGLD

GOODLAND FORECAST AREA HOURLY WEATHER ROUNDUP
NATIONAL WEATHER SERVICE GOODLAND KS
800 AM MDT TUE SEP 30 2014

...OFFICIAL OBSERVATIONS...

CITY           SKY/WX    TMP DP  RH WIND       PRES   REMARKS
GOODLAND KS    SUNNY     52  47  83 CALM      29.86F
HILL CITY KS   PTSUNNY   58  56  93 CALM      29.84S
IMPERIAL NEB   SUNNY     52  47  83 SW9       29.81S
MCCOOK NEB     SUNNY     54  50  86 SW9       29.82S
AKRON CO       MOSUNNY   50  43  77 S9        29.84S
BURLINGTON CO  SUNNY     51  44  77 S12       29.86F
LIMON CO       SUNNY     44  41  89 CALM      29.90S
$$

...UNOFFICIAL OBSERVATIONS...

CITY           SKY/WX    TMP DP  RH WIND       PRES   REMARKS
COLBY KS       SUNNY     54  54 100 SW7       29.85F
GOVE KS          N/A     56  32  40 MISG        N/A
NORTON KS      MOSUNNY   57  46  67 S7        29.82S
SHARON SPRINGS   N/A     50  48  93 CALM        N/A
WAKEENEY KS      N/A     63  58  84 MISG        N/A
KIT CARSON CO    N/A     48  45  89 MISG        N/A
YUMA CO          N/A     51  46  84 SW9         N/A
$$



USA.gov is the U.S. government's official web portal to all federal, state and local government web resources and services.